JAF2JW EBOS-LEMG

Flight info

Callsign JAF2JW
Flight time N/A
Altitude 35000
Route FERDI UY50 CIV N872 MEDIL DCT KOVIN DCT DUCRA UM728 RESMI UN857 DISAK DCT ARKIP DCT ARNAV DCT LMG DCT UVELI DCT OSMOB DCT ARVID DCT PPN DCT NOLSA N857 BAN DCT PINAR DCT CJN DCT INTAX DCT NASOS DCT ANZAN DCT BLN
Aircraft B738/M-SDE2E3FGHIRWXY/LB1

Departure

Time 2026-05-07 10:04
Airport Ostend-Bruges International Airport (EBOS)

Arrival

Time N/A
Airport Málaga-Costa del Sol Airport (LEMG)
Time Latitude Longitude Altitude Speed Heading
2026-05-07 09:52 51.20360 2.87118 13 ft 0 kts 348°
2026-05-07 09:57 51.20352 2.87120 14 ft 3 kts 347°
2026-05-07 09:58 51.20332 2.87127 17 ft 3 kts 348°
2026-05-07 09:58 51.20312 2.87134 16 ft 3 kts 348°
2026-05-07 09:58 51.20293 2.87140 13 ft 2 kts 340°
2026-05-07 09:58 51.20284 2.87147 18 ft 1 kts 312°
2026-05-07 09:59 51.20279 2.87159 16 ft 1 kts 283°
2026-05-07 09:59 51.20278 2.87172 15 ft 1 kts 269°
2026-05-07 09:59 51.20278 2.87185 15 ft 0 kts 263°
2026-05-07 10:01 51.20278 2.87183 15 ft 2 kts 263°
2026-05-07 10:01 51.20227 2.87134 13 ft 17 kts 177°
2026-05-07 10:01 51.20113 2.87151 14 ft 15 kts 219°
2026-05-07 10:01 51.20078 2.86967 14 ft 23 kts 256°
2026-05-07 10:02 51.20032 2.86664 13 ft 29 kts 258°
2026-05-07 10:02 51.19988 2.86358 13 ft 27 kts 255°
2026-05-07 10:02 51.19942 2.86071 14 ft 26 kts 256°
2026-05-07 10:02 51.19901 2.85797 14 ft 27 kts 258°
2026-05-07 10:03 51.19859 2.85505 14 ft 27 kts 256°
2026-05-07 10:03 51.19769 2.85270 14 ft 25 kts 209°
2026-05-07 10:03 51.19662 2.85317 13 ft 7 kts 110°
2026-05-07 10:03 51.19682 2.85468 14 ft 37 kts 77°
2026-05-07 10:04 51.19810 2.86320 15 ft 118 kts 76°
2026-05-07 10:04 51.20054 2.87921 139 ft 172 kts 77°
2026-05-07 10:04 51.20321 2.89770 1157 ft 170 kts 78°
2026-05-07 10:04 51.20577 2.91624 2156 ft 175 kts 77°
2026-05-07 10:05 51.20887 2.93693 2579 ft 203 kts 77°
2026-05-07 10:05 51.21242 2.96018 2844 ft 225 kts 77°
2026-05-07 10:05 51.21623 2.98492 3448 ft 232 kts 77°
2026-05-07 10:05 51.22006 3.01005 3978 ft 244 kts 77°
2026-05-07 10:06 51.22053 3.03819 4425 ft 260 kts 108°
2026-05-07 10:06 51.21137 3.06252 5282 ft 261 kts 130°
2026-05-07 10:06 51.19953 3.08496 6087 ft 267 kts 130°
2026-05-07 10:06 51.18756 3.10794 6889 ft 271 kts 130°
2026-05-07 10:07 51.17545 3.13126 7641 ft 275 kts 130°
2026-05-07 10:07 51.16315 3.15500 8410 ft 280 kts 130°
2026-05-07 10:07 51.15066 3.17914 9172 ft 285 kts 130°
2026-05-07 10:07 51.13796 3.20370 9934 ft 289 kts 130°
2026-05-07 10:08 51.12503 3.22876 10503 ft 301 kts 130°
2026-05-07 10:08 51.11122 3.25546 10698 ft 324 kts 130°
2026-05-07 10:08 51.09641 3.28410 10875 ft 346 kts 130°
2026-05-07 10:08 51.08060 3.31466 11035 ft 368 kts 130°
2026-05-07 10:09 51.06405 3.34665 11410 ft 380 kts 130°
2026-05-07 10:09 51.04712 3.37937 12014 ft 385 kts 130°
2026-05-07 10:09 51.03000 3.41239 12727 ft 388 kts 130°
2026-05-07 10:09 51.01255 3.44601 13413 ft 392 kts 130°
2026-05-07 10:10 50.99514 3.47952 14047 ft 395 kts 130°
2026-05-07 10:10 50.97754 3.51336 14636 ft 399 kts 130°
2026-05-07 10:10 50.95980 3.54742 15233 ft 402 kts 130°
2026-05-07 10:10 50.94193 3.58164 15821 ft 405 kts 130°
2026-05-07 10:11 50.92381 3.61602 16394 ft 408 kts 133°
2026-05-07 10:11 50.90213 3.64407 16901 ft 410 kts 154°
2026-05-07 10:11 50.87542 3.65970 17535 ft 410 kts 164°
2026-05-07 10:11 50.84814 3.67402 18090 ft 414 kts 161°
2026-05-07 10:12 50.82097 3.68960 18571 ft 418 kts 161°
2026-05-07 10:12 50.79359 3.70573 19038 ft 421 kts 160°
2026-05-07 10:12 50.76604 3.72198 19520 ft 424 kts 160°
2026-05-07 10:12 50.73833 3.73820 20004 ft 426 kts 161°
2026-05-07 10:13 50.71003 3.75465 20453 ft 429 kts 161°
2026-05-07 10:13 50.68186 3.77094 20902 ft 432 kts 161°
2026-05-07 10:13 50.66312 3.78174 21191 ft 434 kts 161°
2026-05-07 10:13 50.62539 3.80346 21762 ft 438 kts 161°
2026-05-07 10:14 50.59630 3.81777 22157 ft 440 kts 170°
2026-05-07 10:14 50.56577 3.82007 22559 ft 441 kts 187°
2026-05-07 10:14 50.53595 3.80927 23000 ft 440 kts 202°
2026-05-07 10:14 50.50801 3.78952 23416 ft 442 kts 206°
2026-05-07 10:15 50.48910 3.77578 23649 ft 444 kts 205°
2026-05-07 10:15 50.46073 3.75577 23938 ft 448 kts 205°
2026-05-07 10:15 50.43214 3.73609 24284 ft 449 kts 204°
2026-05-07 10:15 50.40343 3.71658 24636 ft 451 kts 204°
2026-05-07 10:16 50.37458 3.69705 24962 ft 453 kts 204°
2026-05-07 10:16 50.34561 3.67745 25269 ft 455 kts 204°
2026-05-07 10:16 50.31651 3.65777 25569 ft 456 kts 204°
2026-05-07 10:16 50.28730 3.63802 25864 ft 458 kts 204°
2026-05-07 10:17 50.25796 3.61821 26168 ft 460 kts 204°
2026-05-07 10:17 50.22846 3.59831 26463 ft 462 kts 204°
2026-05-07 10:17 50.19891 3.57840 26744 ft 463 kts 204°
2026-05-07 10:17 50.16927 3.55845 27015 ft 465 kts 204°
2026-05-07 10:18 50.13946 3.53842 27319 ft 466 kts 204°
2026-05-07 10:18 50.11001 3.51866 27724 ft 465 kts 204°
2026-05-07 10:18 50.08008 3.49861 28164 ft 462 kts 204°
2026-05-07 10:18 50.05058 3.47888 28600 ft 461 kts 204°
2026-05-07 10:19 50.02114 3.45920 28986 ft 460 kts 204°
2026-05-07 10:19 49.99213 3.43984 29364 ft 459 kts 204°
2026-05-07 10:19 49.96280 3.42029 29742 ft 459 kts 204°
2026-05-07 10:19 49.93348 3.40077 30121 ft 458 kts 204°
2026-05-07 10:20 49.90425 3.38134 30443 ft 457 kts 204°
2026-05-07 10:20 49.87508 3.36197 30749 ft 456 kts 204°
2026-05-07 10:20 49.84597 3.34266 31055 ft 455 kts 204°
2026-05-07 10:20 49.81682 3.32336 31359 ft 455 kts 204°
2026-05-07 10:21 49.78771 3.30411 31654 ft 454 kts 204°
2026-05-07 10:21 49.75884 3.28504 31954 ft 453 kts 204°
2026-05-07 10:21 49.72977 3.26587 32245 ft 453 kts 204°
2026-05-07 10:21 49.70079 3.24677 32520 ft 452 kts 204°
2026-05-07 10:22 49.67181 3.22771 32808 ft 452 kts 204°
2026-05-07 10:22 49.64284 3.20867 33106 ft 451 kts 204°
2026-05-07 10:22 49.61429 3.18993 33405 ft 450 kts 204°
2026-05-07 10:22 49.58544 3.17102 33689 ft 450 kts 204°
2026-05-07 10:23 49.55657 3.15211 33942 ft 450 kts 204°
2026-05-07 10:23 49.52774 3.13326 34199 ft 449 kts 204°
2026-05-07 10:23 49.49892 3.11442 34421 ft 448 kts 204°
2026-05-07 10:23 49.47119 3.09317 34571 ft 448 kts 212°
2026-05-07 10:24 49.44515 3.06660 34743 ft 448 kts 215°
2026-05-07 10:24 49.41936 3.03957 34952 ft 448 kts 215°
2026-05-07 10:24 49.39346 3.01262 35063 ft 450 kts 214°
2026-05-07 10:25 49.34133 2.95922 35065 ft 451 kts 214°
2026-05-07 10:25 49.28906 2.90636 35070 ft 446 kts 214°
2026-05-07 10:26 49.23747 2.85443 35065 ft 444 kts 214°
2026-05-07 10:26 49.18583 2.80255 35067 ft 443 kts 214°
2026-05-07 10:27 49.13413 2.75072 35082 ft 442 kts 214°
2026-05-07 10:27 49.08281 2.69938 35081 ft 443 kts 214°
2026-05-07 10:28 49.03111 2.64780 35082 ft 445 kts 214°
2026-05-07 10:28 48.97935 2.59628 35086 ft 447 kts 213°
2026-05-07 10:29 48.92701 2.54432 35075 ft 449 kts 213°
2026-05-07 10:29 48.87469 2.49249 35079 ft 450 kts 213°
2026-05-07 10:30 48.83084 2.44913 35084 ft 451 kts 213°